Temp
1 1 1 1 1 1 1 2 2 2 2 2 2 2 2 2 2 2 2 2 2 3 3 3 3 3 3 4 4 4 4 5 5 5 5 5 5 6 6 6 6 6 7 7 7 8 8 8 8 8 8 9 9 10 10 10 11 11 11 11 11 11 11 11 11 10 10 10 11 11 11 12 12 12 12 13 13 13 13 13 13 13 13 12 12 12
1 1 1 1 1 1 1 1 1 1 1 1 1 1 1 1 2 2 2 2 2 2 2 2 3 3 3 3 3 3 4 4 4 5 5 5 5 5 6 6 6 6 6 7 7 7 8 8 8 8 8 9 9 9 10 10 10 11 11 11 11 11 11 11 11 11 10 10 10 11 11 11 11 12 12 12 12 13 13 13 13 13 13 12 12 12
0 0 1 1 1 1 1 1 1 1 1 1 1 1 1 1 1 1 1 2 2 2 2 2 2 2 3 3 3 3 3 4 4 4 4 5 5 5 5 5 6 6 6 6 7 7 7 7 8 8 8 8 9 9 9 10 10 10 11 11 11 11 11 11 11 11 11 11 11 11 11 11 11 11 11 12 12 12 12 12 12 12 13 13 12 12
0 0 0 0 0 0 0 0 0 0 0 0 0 1 1 1 1 1 1 1 1 1 1 2 2 2 2 3 3 3 3 3 4 4 4 4 5 5 5 5 5 6 6 6 6 7 7 7 7 8 8 8 8 8 9 9 9 10 10 10 10 11 11 11 11 11 11 11 11 11 11 11 11 11 11 11 11 12 12 12 12 12 12 12 12 12
-0 0 0 -0 -0 -0 0 0 0 0 0 0 0 0 0 1 1 1 1 1 1 1 1 1 1 2 2 2 2 3 3 3 3 4 4 4 4 4 5 5 5 5 6 6 6 6 6 7 7 8 8 8 8 8 8 8 9 9 10 10 10 10 10 10 11 11 11 11 11 11 11 11 11 11 11 11 11 11 12 12 12 12 12 12 12 12
-0 -0 -0 -0 -0 -0 -0 -0 -0 -0 -0 0 0 0 0 0 0 0 0 0 0 1 1 1 1 2 2 2 2 2 3 3 3 3 3 4 4 4 4 5 5 5 5 5 5 6 6 6 7 7 7 8 8 8 8 8 8 9 9 9 10 10 10 10 10 11 11 11 11 11 11 11 11 11 11 11 11 11 11 12 12 12 12 12 12 12
-0 -0 -0 -0 -0 -0 -0 -0 -0 -0 -0 -0 -0 -0 -0 -0 -0 0 0 0 0 1 1 1 1 1 2 2 2 2 2 2 2 3 3 3 3 4 4 4 4 5 5 5 5 5 5 6 6 7 7 7 7 8 8 8 8 8 9 9 9 9 10 10 10 10 11 11 11 11 11 11 11 11 10 10 11 11 11 11 11 12 12 12 12 12
-1 -1 -1 -0 -0 -0 -0 -0 -0 -0 -0 -0 -0 -0 -0 -0 -0 -0 0 0 0 0 1 1 1 1 1 1 1 1 2 2 2 2 2 3 3 3 3 4 4 4 4 4 5 5 5 5 5 6 6 6 6 7 7 7 8 8 8 9 9 9 9 10 10 10 10 10 11 11 11 11 11 11 10 10 10 11 11 11 11 11 12 12 12 12
-1 -1 -1 -1 -1 -1 -1 -1 -1 -0 -0 -0 -0 -0 -0 -0 -0 -0 -0 0 0 0 0 0 0 1 1 1 1 1 1 1 2 2 2 2 2 3 3 3 3 4 4 4 4 4 4 4 4 4 5 5 5 6 6 7 7 7 8 8 8 9 9 9 10 10 10 10 10 10 10 10 10 10 10 10 10 10 10 11 11 11 11 12 12 12
-1 -1 -1 -1 -1 -1 -1 -1 -1 -1 -1 -1 -1 -1 -1 -0 -0 -0 -0 -0 -0 -0 0 0 0 0 0 0 1 1 1 1 1 2 2 2 2 2 3 3 3 3 3 4 4 3 3 3 4 4 4 4 4 5 5 5 6 6 7 7 8 8 9 9 9 10 10 10 10 10 10 10 10 10 10 10 10 10 10 10 11 11 11 11 11 12
-2 -2 -2 -2 -1 -1 -1 -1 -1 -1 -1 -1 -1 -1 -1 -1 -0 -0 -1 -1 -0 -0 -0 -0 0 0 0 0 0 0 1 1 1 1 1 2 2 2 2 2 2 3 3 3 3 3 3 3 3 3 4 4 4 4 4 5 5 5 6 6 7 7 8 9 9 9 10 10 10 10 10 10 10 9 10 10 10 10 10 10 10 11 11 11 11 11
-2 -2 -2 -2 -2 -2 -1 -1 -1 -1 -1 -1 -1 -1 -1 -1 -1 -1 -1 -1 -1 -0 -0 -0 -0 -0 -0 -0 0 0 0 1 1 1 1 1 1 1 2 2 2 2 2 2 2 2 2 2 3 3 3 3 3 4 4 4 4 4 5 5 6 6 7 8 8 9 9 9 9 9 9 9 9 9 9 9 10 10 10 10 10 10 10 11 11 11
-2 -2 -2 -2 -2 -2 -1 -1 -1 -1 -1 -1 -1 -1 -1 -1 -1 -1 -1 -1 -1 -1 -0 -0 -0 -0 -0 -0 -0 0 0 0 0 0 1 1 1 1 1 1 1 1 1 1 1 1 2 2 2 2 2 3 3 3 3 4 4 4 4 4 4 5 6 6 7 8 8 9 9 9 9 9 9 9 9 9 9 10 10 10 10 10 10 10 11 11
-2 -2 -1 -1 -1 -1 -1 -1 -1 -1 -1 -1 -1 -1 -1 -1 -1 -1 -1 -1 -1 -1 -1 -1 -1 -1 -1 -0 -0 0 0 0 0 0 0 0 0 0 1 0 0 0 1 1 1 1 1 1 2 2 2 2 2 3 3 3 3 3 3 3 3 4 4 5 6 6 7 8 8 8 8 8 8 8 8 9 9 9 9 9 10 10 10 10 10 11
-1 -1 -1 -1 -1 -1 -1 -1 -1 -1 -1 -1 -1 -1 -1 -1 -1 -1 -1 -1 -1 -1 -1 -1 -1 -1 -1 -0 -0 -0 -0 -0 -0 -0 -0 0 0 0 0 0 0 0 0 0 0 1 1 1 1 1 2 2 2 2 3 3 3 3 3 3 3 3 3 4 4 5 6 7 7 7 8 8 8 8 8 9 9 9 9 9 9 9 10 10 10 10
-1 -1 -1 -1 -1 -1 -1 -1 -1 -1 -1 -1 -1 -1 -1 -1 -1 -1 -1 -1 -1 -1 -1 -1 -1 -1 -1 -1 -1 -0 -0 -0 -0 -0 -0 -0 -0 -0 -0 -0 -0 -0 -0 -0 0 0 0 1 1 1 1 2 2 2 2 3 3 3 3 3 3 3 3 3 4 4 5 6 6 7 7 7 7 7 8 8 8 9 9 9 9 9 9 10 10 10
-1 -1 -1 -1 -1 -1 -1 -1 -1 -1 -2 -2 -2 -1 -1 -1 -1 -1 -1 -1 -1 -1 -1 -1 -1 -1 -1 -1 -1 -1 -1 -1 -1 -1 -1 -0 -0 -0 -0 -0 -0 -0 -0 -0 -0 -0 0 0 1 1 1 1 2 2 2 2 3 3 3 3 3 3 3 3 3 3 4 5 6 6 6 7 7 7 7 8 8 8 8 8 9 9 9 9 9 10
-1 -1 -1 -1 -1 -1 -1 -1 -2 -2 -2 -2 -2 -1 -1 -2 -2 -2 -2 -2 -2 -2 -1 -1 -1 -1 -1 -1 -1 -1 -1 -1 -1 -1 -1 -1 -1 -1 -1 -1 -1 -1 -1 -0 -0 -0 -0 0 0 1 1 1 2 2 2 2 2 2 2 2 2 3 3 3 3 3 3 4 4 5 6 7 7 7 7 8 8 8 8 8 8 8 8 9 9 9
-2 -2 -2 -2 -1 -2 -2 -2 -2 -2 -2 -2 -2 -2 -2 -2 -2 -2 -2 -2 -2 -2 -1 -1 -1 -1 -1 -1 -1 -1 -1 -1 -1 -1 -1 -1 -1 -1 -1 -1 -1 -1 -1 -0 -0 -0 -0 0 0 1 1 1 1 2 2 2 2 2 2 2 2 2 3 3 3 3 3 3 4 4 5 6 7 7 7 7 8 8 8 7 7 8 8 8 8 8
-2 -2 -2 -2 -2 -2 -2 -2 -2 -2 -2 -2 -2 -2 -2 -2 -2 -2 -2 -2 -1 -1 -2 -1 -1 -1 -1 -1 -1 -1 -1 -1 -1 -1 -1 -1 -1 -1 -1 -1 -1 -1 -0 -0 -0 -0 -0 0 0 1 1 1 1 1 2 2 2 2 2 2 2 2 3 3 3 3 3 3 3 4 4 5 6 7 7 7 7 7 7 7 7 7 7 7 8 8
-2 -2 -2 -2 -2 -2 -2 -2 -2 -2 -2 -2 -2 -2 -2 -2 -2 -2 -1 -1 -1 -1 -1 -1 -1 -1 -1 -1 -1 -1 -1 -1 -2 -2 -1 -1 -1 -1 -1 -1 -0 -0 -0 -0 -0 -0 0 0 0 1 1 1 1 1 1 2 2 2 2 2 2 2 3 3 3 3 3 3 3 3 3 4 5 6 7 7 7 7 6 6 7 7 7 7 7 8
-3 -2 -2 -2 -2 -2 -2 -2 -2 -2 -2 -2 -2 -2 -2 -2 -2 -1 -1 -1 -1 -1 -1 -1 -1 -1 -1 -1 -1 -1 -2 -2 -2 -2 -2 -1 -1 -1 -0 -0 -0 -0 -0 -0 -0 0 0 0 0 1 1 1 1 1 1 1 1 2 2 2 2 3 3 3 3 3 3 3 3 3 3 3 4 5 6 6 7 6 6 6 7 7 7 7 7 7
-3 -3 -2 -2 -3 -3 -2 -2 -2 -2 -2 -2 -2 -2 -2 -2 -2 -2 -2 -2 -2 -2 -2 -2 -2 -2 -2 -2 -2 -2 -2 -1 -2 -2 -2 -1 -1 -0 -0 -0 -0 -0 -0 -0 0 0 0 0 0 0 0 0 1 1 1 1 1 1 2 2 2 3 3 3 3 3 3 3 3 3 3 3 4 4 5 6 6 6 6 7 7 7 7 7 7 7
-2 -2 -2 -2 -2 -2 -2 -2 -2 -2 -2 -2 -2 -2 -2 -2 -2 -2 -2 -2 -2 -2 -2 -2 -2 -2 -2 -2 -1 -1 -1 -1 -1 -1 -1 -1 -1 -0 -0 -0 -0 -0 -0 -0 -0 -0 -0 -0 0 0 0 0 1 1 1 1 1 1 1 2 2 2 3 3 3 3 3 3 3 3 3 3 4 4 5 6 6 6 6 7 7 7 7 7 7 7
-2 -2 -2 -2 -2 -2 -2 -2 -2 -2 -2 -2 -2 -2 -2 -2 -2 -2 -2 -2 -2 -2 -2 -2 -2 -1 -1 -1 -1 -1 -1 -1 -1 -1 -1 -1 -1 -0 -0 -0 -0 -0 -0 -0 -0 -0 -0 -0 -0 0 0 1 1 1 1 1 1 1 1 2 2 2 2 3 3 3 3 3 3 3 3 3 3 4 5 6 6 6 6 6 6 6 7 7 7 7
-2 -2 -2 -2 -2 -2 -2 -2 -2 -2 -2 -2 -2 -2 -2 -2 -2 -2 -2 -2 -2 -2 -2 -2 -2 -1 -1 -1 -1 -1 -1 -1 -1 -1 -1 -1 -1 -1 -0 -0 -0 -0 -0 -0 -0 -0 -0 -0 -0 0 0 1 1 2 2 1 1 1 1 2 2 2 2 2 3 3 2 3 3 3 3 3 3 4 5 6 6 6 6 6 6 6 6 6 6 6
-2 -2 -2 -2 -2 -2 -2 -2 -2 -2 -2 -2 -2 -2 -2 -2 -2 -2 -2 -2 -2 -2 -2 -2 -1 -1 -1 -1 -1 -1 -1 -1 -1 -1 -1 -1 -1 -1 -1 -0 -0 -0 -0 -0 -0 -0 -0 -0 -0 0 0 1 1 2 2 1 1 1 1 2 2 2 2 2 2 2 2 3 3 3 3 3 3 4 5 5 6 6 6 6 6 6 6 6 6 6
-2 -2 -2 -3 -3 -3 -3 -3 -3 -3 -2 -2 -2 -2 -2 -2 -2 -2 -2 -2 -2 -2 -2 -2 -2 -1 -1 -1 -1 -1 -1 -1 -1 -1 -1 -1 -1 -1 -1 -0 -0 -1 -1 -0 -0 -0 -0 -0 0 0 1 1 1 1 1 1 1 1 2 2 2 1 1 1 2 2 3 3 3 3 3 3 4 4 4 5 5 5 5 5 6 6 6 6 6 6
-3 -3 -3 -3 -3 -3 -3 -3 -3 -3 -3 -3 -3 -2 -2 -2 -2 -2 -2 -2 -2 -2 -2 -2 -2 -2 -1 -1 -1 -1 -1 -1 -1 -1 -1 -1 -1 -1 -1 -1 -1 -1 -1 -1 -0 -0 0 0 0 1 1 1 1 1 1 2 2 1 1 1 2 2 1 1 1 2 3 3 3 3 3 4 4 4 4 4 4 4 4 4 5 5 6 6 6 6
-3 -3 -3 -3 -3 -3 -3 -3 -3 -3 -3 -3 -3 -3 -3 -3 -3 -3 -3 -3 -3 -3 -2 -2 -2 -2 -2 -2 -1 -1 -1 -1 -1 -1 -1 -1 -1 -1 -1 -1 -1 -1 -1 -1 -1 -0 0 1 1 1 1 1 1 1 1 1 1 1 1 1 1 1 1 1 1 2 2 3 3 4 4 4 4 4 4 3 3 3 4 4 4 5 5 6 6 6
-4 -4 -4 -4 -4 -4 -4 -4 -4 -4 -3 -3 -3 -3 -3 -3 -3 -3 -3 -3 -3 -3 -3 -2 -2 -2 -2 -2 -2 -1 -1 -1 -1 -1 -2 -2 -2 -1 -1 -1 -1 -1 -1 -1 -1 -0 0 0 1 1 0 0 0 0 0 1 1 1 1 1 1 1 1 1 1 1 2 2 3 3 4 4 4 4 4 3 3 3 3 3 4 4 5 5 6 6
-4 -4 -4 -4 -4 -4 -4 -4 -4 -4 -4 -3 -3 -3 -3 -3 -3 -3 -3 -3 -3 -3 -3 -3 -2 -2 -2 -2 -2 -2 -1 -1 -2 -2 -2 -2 -2 -2 -2 -2 -1 -1 -1 -2 -1 -1 -1 -0 0 0 -0 -0 -0 -0 -0 0 0 1 1 1 1 1 1 1 0 1 1 2 2 3 3 3 4 4 3 3 3 3 3 3 3 4 4 5 5 6
-4 -4 -5 -5 -5 -4 -4 -4 -4 -4 -4 -4 -4 -4 -4 -4 -4 -3 -3 -3 -3 -3 -3 -3 -3 -3 -3 -2 -2 -2 -2 -2 -2 -2 -2 -2 -2 -2 -2 -2 -2 -2 -2 -1 -1 -1 -1 -1 -1 -0 -1 -1 -1 -1 -0 -0 0 0 1 1 1 1 1 1 0 0 1 1 2 2 2 3 3 3 3 3 3 3 3 3 3 3 4 4 5 6
-5 -5 -5 -5 -5 -4 -4 -4 -4 -4 -4 -4 -4 -4 -4 -4 -4 -4 -4 -4 -3 -3 -3 -3 -3 -3 -3 -3 -2 -2 -2 -2 -2 -2 -3 -3 -2 -2 -2 -2 -2 -2 -2 -1 -1 -1 -1 -1 -1 -1 -1 -1 -1 -1 -0 -0 0 0 0 0 1 1 1 1 0 0 0 1 1 2 2 2 2 3 3 3 3 3 3 3 3 3 4 4 5 5
-5 -5 -5 -5 -5 -4 -4 -4 -4 -4 -4 -4 -4 -4 -4 -4 -4 -4 -4 -4 -4 -4 -4 -4 -3 -3 -3 -3 -2 -2 -2 -3 -3 -3 -3 -3 -3 -3 -3 -2 -2 -2 -2 -2 -2 -2 -2 -1 -1 -1 -1 -1 -1 -1 -0 0 0 0 0 0 0 0 1 0 0 0 1 1 1 2 2 2 2 2 2 2 3 3 3 3 3 3 3 4 4 5
-5 -5 -5 -5 -4 -4 -4 -4 -4 -4 -4 -4 -5 -5 -5 -5 -5 -4 -4 -4 -4 -4 -4 -4 -3 -3 -3 -3 -3 -3 -3 -3 -3 -3 -3 -3 -3 -3 -3 -3 -3 -3 -2 -2 -2 -2 -2 -2 -2 -2 -2 -1 -1 -1 -0 -0 0 0 0 0 0 0 0 0 0 1 1 1 1 2 2 2 2 2 2 2 2 3 3 3 4 4 3 4 4 5
-5 -5 -5 -4 -4 -4 -4 -4 -4 -5 -5 -5 -5 -5 -5 -5 -5 -5 -4 -4 -4 -4 -3 -3 -3 -3 -3 -3 -3 -3 -3 -3 -3 -3 -3 -4 -4 -3 -3 -3 -3 -3 -3 -3 -3 -2 -2 -2 -2 -2 -2 -1 -1 -1 -0 -0 -0 -0 -0 -0 -0 -0 0 0 0 1 1 1 1 1 2 2 2 2 2 2 2 3 3 4 4 4 4 4 4 4
-5 -5 -5 -5 -5 -5 -5 -5 -5 -5 -6 -6 -6 -6 -6 -6 -5 -5 -4 -4 -4 -4 -4 -4 -4 -4 -4 -4 -4 -4 -3 -3 -3 -3 -3 -4 -4 -4 -4 -4 -4 -4 -3 -3 -3 -3 -3 -2 -2 -2 -2 -1 -1 -1 -1 -1 -1 -1 -1 -1 -0 -0 -0 0 0 0 1 1 1 1 2 2 2 2 2 2 3 3 3 4 4 4 4 4 4 4
-5 -5 -5 -5 -5 -5 -5 -5 -6 -6 -6 -6 -6 -6 -6 -6 -5 -5 -5 -5 -5 -5 -4 -4 -4 -4 -4 -4 -4 -4 -3 -3 -3 -3 -3 -4 -4 -4 -4 -4 -4 -4 -4 -4 -3 -3 -3 -3 -2 -2 -2 -1 -1 -1 -1 -1 -1 -1 -1 -1 -1 -0 -0 -0 0 0 1 1 1 1 2 2 2 2 2 2 2 2 3 3 3 4 4 5 5 5
-6 -6 -6 -6 -6 -6 -6 -6 -6 -6 -6 -7 -7 -6 -6 -6 -5 -5 -5 -5 -5 -5 -5 -5 -5 -5 -4 -4 -4 -4 -3 -3 -3 -3 -4 -4 -4 -4 -4 -4 -4 -4 -4 -4 -4 -3 -3 -3 -3 -2 -2 -2 -2 -2 -1 -1 -1 -1 -1 -1 -1 -0 -0 -0 0 0 1 1 1 1 2 2 2 2 2 2 2 2 3 3 3 3 4 5 5 5
-6 -6 -6 -6 -6 -6 -6 -6 -6 -7 -7 -7 -7 -6 -6 -6 -5 -6 -6 -6 -6 -6 -6 -6 -5 -5 -5 -5 -4 -4 -4 -3 -3 -3 -4 -4 -4 -4 -4 -4 -4 -4 -4 -4 -4 -4 -3 -3 -3 -3 -2 -2 -2 -2 -2 -1 -1 -1 -1 -1 -1 -0 -0 -0 0 0 1 1 1 1 1 2 2 2 2 2 3 3 3 3 3 3 3 4 5 5
-6 -6 -6 -6 -6 -6 -6 -6 -7 -7 -7 -7 -6 -6 -6 -6 -6 -6 -6 -6 -6 -6 -6 -6 -6 -6 -6 -5 -5 -4 -4 -4 -4 -4 -4 -4 -4 -4 -4 -3 -3 -4 -4 -4 -4 -4 -3 -3 -3 -3 -2 -2 -2 -2 -2 -1 -1 -1 -1 -1 -1 -1 -0 -0 0 0 1 1 1 1 1 2 2 2 2 2 3 3 3 3 4 3 3 4 5 5
-6 -6 -6 -6 -6 -6 -6 -6 -7 -7 -7 -6 -6 -6 -6 -6 -7 -7 -7 -7 -6 -6 -6 -6 -6 -6 -6 -6 -5 -5 -4 -4 -4 -4 -4 -4 -3 -3 -3 -3 -3 -3 -3 -4 -4 -4 -3 -3 -3 -3 -2 -2 -2 -2 -2 -1 -1 -1 -1 -1 -1 -1 -0 -0 0 0 1 1 1 1 1 1 2 2 2 2 2 3 3 3 4 4 3 3 4 5
-6 -6 -6 -6 -6 -6 -6 -6 -6 -6 -6 -6 -6 -6 -7 -7 -7 -7 -7 -7 -6 -6 -6 -6 -6 -6 -6 -5 -5 -5 -5 -4 -4 -4 -3 -3 -3 -3 -3 -3 -3 -3 -3 -4 -4 -4 -3 -3 -3 -3 -3 -2 -2 -2 -2 -1 -1 -1 -1 -1 -1 -1 -0 -0 0 0 0 1 1 1 1 1 1 1 2 2 2 2 3 3 4 4 4 3 4 5
-7 -6 -6 -6 -6 -6 -6 -6 -6 -6 -6 -6 -6 -7 -7 -7 -7 -7 -7 -6 -6 -6 -6 -6 -6 -6 -5 -5 -5 -5 -5 -5 -4 -4 -3 -3 -3 -3 -3 -3 -3 -3 -3 -3 -3 -3 -3 -3 -3 -3 -3 -3 -2 -2 -2 -1 -1 -1 -1 -1 -1 -0 -0 -0 -0 -0 -0 0 0 1 1 1 1 1 1 2 2 2 3 3 3 3 4 4 4 4
-6 -6 -6 -6 -6 -6 -6 -6 -6 -6 -6 -6 -6 -7 -7 -6 -6 -6 -6 -6 -6 -6 -6 -6 -6 -6 -6 -5 -5 -5 -5 -5 -4 -4 -4 -3 -3 -3 -3 -3 -3 -3 -3 -3 -3 -3 -3 -3 -3 -3 -3 -3 -2 -2 -2 -2 -1 -1 -1 -1 -1 -0 -0 -0 -0 -0 0 0 0 1 1 1 1 1 1 1 2 2 3 3 3 3 3 3 4 4
-6 -6 -6 -6 -6 -6 -6 -6 -6 -6 -6 -6 -6 -6 -6 -6 -6 -6 -6 -6 -6 -6 -6 -6 -6 -6 -6 -6 -5 -5 -5 -5 -4 -4 -4 -3 -3 -3 -3 -3 -3 -3 -3 -3 -3 -3 -3 -3 -2 -2 -3 -3 -2 -2 -2 -2 -2 -1 -1 -1 -1 -0 -0 -0 -0 0 0 0 1 1 1 1 1 1 1 1 2 2 2 3 3 3 3 3 3 4
-6 -6 -6 -6 -6 -6 -6 -6 -6 -6 -6 -6 -6 -6 -6 -6 -6 -6 -6 -6 -6 -6 -6 -6 -6 -6 -6 -6 -5 -5 -5 -4 -4 -4 -4 -3 -3 -3 -3 -3 -3 -3 -3 -3 -3 -3 -3 -2 -2 -2 -2 -2 -2 -2 -2 -1 -1 -1 -1 -1 -1 -1 -0 -0 -0 -0 0 1 1 1 1 1 1 1 1 1 2 2 2 2 3 3 3 3 3 3
-6 -6 -6 -6 -6 -6 -6 -6 -6 -6 -6 -6 -6 -6 -6 -6 -6 -6 -6 -6 -6 -6 -6 -6 -6 -6 -6 -6 -5 -5 -5 -4 -4 -4 -4 -3 -3 -3 -3 -3 -3 -3 -3 -3 -3 -3 -2 -2 -2 -1 -1 -1 -2 -2 -1 -1 -1 -1 -1 -1 -1 -1 -1 -1 -1 -0 0 0 1 1 1 0 0 1 1 1 2 2 2 2 2 3 3 3 3 3
-6 -6 -6 -6 -6 -6 -6 -6 -6 -6 -6 -6 -6 -6 -6 -6 -6 -6 -6 -6 -6 -6 -6 -6 -6 -6 -6 -5 -5 -5 -5 -4 -4 -4 -4 -3 -3 -3 -3 -3 -3 -3 -3 -3 -3 -2 -2 -2 -1 -1 -0 -1 -1 -1 -1 -1 -1 -1 -1 -1 -1 -1 -1 -1 -1 -0 -0 -0 -0 0 0 0 0 1 1 1 2 2 2 2 2 2 3 3 3 3
-6 -6 -6 -6 -6 -6 -6 -6 -6 -6 -6 -6 -6 -6 -6 -6 -6 -6 -6 -6 -6 -6 -6 -6 -6 -6 -6 -5 -5 -5 -4 -4 -4 -4 -4 -3 -3 -3 -3 -3 -3 -3 -3 -3 -2 -2 -2 -2 -1 -1 -0 -0 -0 -0 -1 -1 -1 -1 -1 -1 -1 -1 -1 -1 -1 -0 -0 -0 -0 -0 -0 0 0 0 1 1 2 2 2 2 2 2 3 3 3 3
Height
781 780 778 778 777 775 774 773 772 771 769 768 767 766 764 763 762 761 760 759 758 757 755 753 752 751 749 748 747 746 745 744 743 742 741 740 739 738 737 737 736 735 734 732 732 731 729 728 727 727 726 726 725 724 724 724 723 723 722 722 722 721 720 720 719 719 719 718 717 717 716 716 716 716 716 716 716 717 717 717 717 718 718 719 720 721
780 779 778 777 776 775 773 772 772 771 769 768 767 766 764 763 762 760 759 758 757 756 755 753 751 750 748 747 746 745 744 743 742 740 739 738 737 736 735 734 733 732 731 730 729 728 727 726 725 724 723 723 722 722 722 721 721 721 720 720 720 719 718 718 717 717 717 716 715 715 714 714 714 714 714 714 715 715 715 715 715 716 716 717 718 719
779 778 777 776 776 774 773 772 771 771 770 768 767 765 764 762 761 760 759 757 756 755 754 752 751 749 747 746 745 744 743 742 741 739 738 737 735 734 733 732 731 729 728 727 726 725 724 723 722 722 721 721 720 720 719 719 719 718 718 717 717 717 716 716 715 715 714 714 713 713 712 712 712 712 712 712 713 713 713 713 713 714 714 715 717 717
779 778 776 776 775 774 773 772 770 770 769 767 766 765 764 763 761 760 759 757 756 754 753 752 750 748 747 745 744 742 742 741 739 738 737 735 734 732 731 730 729 727 726 725 724 722 722 721 720 719 719 718 718 717 717 717 716 716 716 715 715 715 714 713 713 712 712 712 711 711 710 710 709 709 709 710 710 711 711 711 711 712 712 713 714 715
779 778 776 775 774 773 772 771 770 769 768 767 766 765 763 762 761 759 758 757 755 754 752 751 750 748 747 745 743 742 741 739 738 737 736 734 732 731 730 728 727 726 724 723 722 721 719 718 718 717 717 716 716 715 715 714 713 713 713 713 712 712 712 711 711 710 710 709 709 709 708 708 707 707 707 707 708 708 709 709 709 709 710 711 712 713
778 778 777 776 774 773 772 771 770 769 767 766 765 764 763 762 760 759 757 756 755 753 752 751 749 748 747 745 743 742 740 739 737 736 734 732 731 730 728 727 726 724 723 722 720 719 718 717 716 715 714 714 713 713 712 712 711 711 710 710 710 710 710 709 708 708 707 707 707 706 706 706 705 705 705 705 706 706 706 707 707 707 707 708 710 711
778 777 777 775 774 773 772 771 769 768 767 765 764 763 762 761 760 758 757 756 754 753 751 750 749 748 747 745 743 741 739 738 736 734 732 731 730 728 727 726 724 723 722 720 719 717 716 715 714 713 712 712 711 711 710 710 709 708 708 708 708 707 707 707 706 706 705 705 704 704 704 703 703 703 703 703 703 703 704 704 705 705 706 706 707 708
777 776 776 775 773 772 771 770 769 768 767 765 764 762 761 759 758 757 756 755 754 753 751 749 747 747 746 744 742 741 739 737 735 733 732 730 728 727 726 724 723 722 720 719 717 716 715 713 712 711 710 709 709 709 708 708 707 707 706 706 705 705 705 704 704 704 703 702 702 702 702 701 701 701 701 701 701 701 701 702 702 703 704 704 705 706
777 776 775 774 773 772 770 769 769 768 767 766 764 763 761 758 757 756 755 754 753 752 751 749 747 745 744 743 742 740 738 737 735 733 731 729 728 726 725 723 722 720 719 717 716 715 713 712 711 709 708 707 707 706 706 705 705 704 704 703 703 703 702 702 702 701 701 700 700 699 699 699 699 699 699 699 699 699 699 699 700 701 702 702 702 703
778 777 775 774 773 772 771 768 767 767 767 766 764 763 762 760 757 754 753 752 752 752 750 749 747 744 743 742 741 740 738 736 734 733 731 729 727 726 724 722 721 719 718 716 715 713 712 711 709 708 707 706 705 704 703 702 702 702 702 701 701 700 700 700 699 699 698 698 698 697 697 697 697 697 697 697 697 697 697 697 697 698 699 700 700 701
777 776 775 773 772 772 771 769 767 767 766 765 763 762 762 761 759 756 752 751 751 750 749 747 746 745 742 740 739 738 737 735 733 731 730 728 727 725 723 722 720 718 717 715 713 712 710 709 708 707 706 705 704 702 701 700 699 699 699 699 698 698 698 697 697 697 696 696 696 695 695 694 694 694 694 694 694 695 695 695 695 696 696 697 698 698
777 775 774 773 772 770 769 768 767 766 765 764 762 760 760 760 759 757 754 752 750 749 748 746 745 744 743 741 738 737 735 734 732 730 729 727 726 724 722 721 719 717 716 714 712 710 709 707 706 705 704 703 702 701 700 699 698 697 697 697 696 696 696 695 695 694 694 693 693 693 692 692 692 692 692 692 692 692 692 692 692 693 693 694 695 696
776 774 773 772 771 769 768 767 766 765 764 763 762 760 759 758 758 757 755 752 750 749 747 745 743 742 742 741 738 736 734 732 731 729 728 726 725 724 722 720 718 716 715 712 710 708 707 706 704 703 702 701 700 699 699 698 697 696 695 694 694 693 694 693 692 692 691 691 691 690 690 690 689 689 689 690 690 690 690 690 690 690 690 691 692 692
774 773 772 771 769 768 767 766 765 764 763 763 762 760 759 757 757 756 754 751 750 749 747 745 742 741 740 739 738 736 734 732 730 728 727 725 724 723 722 719 717 715 714 712 709 707 706 705 703 701 700 699 698 697 697 696 695 694 693 692 692 692 691 691 690 689 689 688 688 688 688 687 687 687 687 687 687 687 688 688 688 688 688 688 689 690
773 772 771 769 768 767 767 766 764 763 762 762 761 760 758 757 756 755 753 750 748 747 746 744 741 739 738 738 737 735 733 731 729 727 726 724 723 722 721 718 715 713 712 711 707 705 704 704 702 700 699 698 697 696 695 694 694 693 692 692 691 690 689 688 687 687 687 686 686 686 685 685 685 685 685 685 685 685 685 685 686 686 686 686 687 687
772 772 770 769 767 767 766 765 764 762 761 760 760 759 757 755 754 753 752 750 748 746 745 743 740 737 735 735 735 734 732 730 728 727 725 722 721 721 720 717 714 712 711 709 706 704 702 702 701 699 698 697 696 694 694 693 692 692 691 691 690 689 688 687 686 685 685 684 684 683 683 683 682 682 682 682 682 683 683 683 683 683 684 684 684 685
772 771 770 768 767 766 765 764 763 762 761 759 758 757 757 755 753 752 751 749 747 746 744 742 740 737 733 732 732 733 732 729 727 725 724 721 719 718 719 717 713 710 708 707 705 702 701 700 699 697 697 696 695 694 692 692 691 690 690 689 689 688 687 686 684 683 682 682 682 681 680 680 680 680 680 680 680 681 681 681 681 681 682 682 682 682
772 771 769 768 766 765 764 763 762 761 760 759 757 756 755 754 753 752 750 748 747 745 743 742 740 738 735 731 729 730 731 729 726 723 722 720 718 717 717 715 712 709 707 705 703 701 699 698 697 696 695 694 693 693 692 691 689 688 688 687 687 686 685 684 683 682 680 680 679 679 679 678 678 678 678 678 678 678 678 678 678 678 679 679 680 681
771 770 769 767 766 764 763 762 761 760 759 758 756 755 753 752 751 750 749 747 746 744 742 740 738 736 735 731 728 728 729 728 725 723 721 719 716 715 714 713 710 707 706 703 701 699 698 696 695 694 693 692 692 691 690 689 688 687 686 685 685 684 683 682 681 680 678 677 677 676 676 677 676 676 676 676 676 676 676 676 676 676 676 677 677 678
769 769 768 767 765 763 762 762 761 760 758 757 756 754 752 750 749 748 747 746 744 742 741 739 737 734 733 730 728 727 727 727 725 722 720 718 715 713 712 711 709 706 704 702 699 697 696 695 694 692 692 690 690 689 688 687 687 685 684 683 682 682 681 680 679 678 677 676 675 674 673 674 674 674 673 673 673 673 673 673 673 673 674 674 675 676
768 767 767 767 765 763 761 760 759 758 757 756 754 752 750 749 747 746 745 743 742 740 739 737 735 733 732 729 727 725 725 725 724 722 719 717 714 712 711 709 707 705 702 700 697 696 695 693 692 691 690 688 687 686 686 685 684 683 682 681 680 679 678 677 676 676 675 674 673 672 672 672 672 672 671 671 671 671 671 671 671 671 672 672 673 673
767 766 765 765 764 762 760 758 757 757 756 755 753 751 748 747 745 743 742 741 740 738 737 735 733 732 730 728 725 723 723 723 723 721 718 715 712 710 709 708 706 703 701 698 696 694 693 692 691 690 688 687 685 684 682 682 681 680 679 678 677 676 675 674 674 673 673 672 671 671 670 669 669 669 669 669 669 669 669 669 669 669 670 670 671 671
766 764 763 762 762 761 759 757 755 754 753 752 751 749 747 745 743 742 740 739 738 736 735 733 731 729 728 726 723 722 721 721 721 720 718 714 711 709 708 706 704 702 699 697 694 693 692 691 689 688 686 685 683 681 679 678 677 676 676 675 674 673 672 672 671 671 671 670 669 669 668 667 667 666 666 667 666 666 667 667 667 667 667 668 669 669
764 763 762 761 760 759 757 756 754 753 752 750 749 747 746 744 742 740 738 737 736 734 732 731 728 727 725 723 722 721 719 719 719 718 717 713 711 708 707 705 703 700 697 695 693 692 690 689 687 686 684 683 681 679 677 675 674 673 673 672 671 671 670 669 669 669 668 668 668 667 667 666 665 664 663 664 664 664 664 664 665 665 666 666 667 667
763 762 761 760 759 758 757 755 753 752 751 749 747 746 744 742 740 738 737 736 735 733 731 729 727 724 723 722 721 719 718 718 718 717 716 713 710 707 705 703 701 698 696 693 692 691 689 687 686 684 682 681 679 677 675 674 673 672 671 670 669 668 668 667 667 667 666 666 666 665 665 664 663 662 662 661 662 662 662 662 663 663 664 664 665 665
761 760 759 758 757 756 755 753 752 751 750 748 747 744 742 740 738 737 735 734 733 732 730 727 725 723 722 721 719 718 717 716 716 716 715 712 709 706 703 702 700 697 694 692 691 689 688 686 684 682 681 679 677 676 675 673 672 671 670 669 667 666 665 665 664 664 664 663 663 663 663 662 662 660 660 659 659 660 660 661 661 662 662 662 662 662
760 758 757 756 755 754 752 751 750 749 748 747 745 743 741 739 737 735 734 733 732 731 729 727 725 723 722 720 718 717 716 715 715 714 713 711 708 705 702 700 698 696 694 691 689 687 686 684 682 680 679 677 676 675 674 672 671 670 669 667 666 664 663 662 662 661 661 661 661 661 661 660 660 659 659 658 658 658 658 658 659 660 660 660 660 660
758 757 756 754 753 752 751 749 748 747 745 744 743 742 740 738 737 735 733 733 732 730 729 727 725 723 721 719 717 716 714 714 713 712 712 710 707 704 701 699 697 696 693 691 687 685 684 682 680 679 677 676 675 674 673 672 670 669 667 665 664 662 661 660 659 658 658 658 658 658 658 658 658 657 657 657 656 656 656 657 657 658 658 658 658 658
756 755 754 752 751 750 749 747 746 745 743 742 741 740 739 738 736 735 733 732 731 730 728 726 724 722 721 718 717 714 713 712 712 712 711 709 706 703 700 698 697 695 693 690 686 683 681 679 678 677 676 675 674 673 672 671 669 667 666 664 662 661 659 658 657 656 655 655 655 655 655 656 656 656 655 655 654 654 654 655 655 656 656 656 656 656
753 752 751 750 749 748 747 745 744 742 742 740 739 738 737 736 735 734 732 731 730 728 726 725 723 722 720 718 715 713 711 710 710 711 710 708 705 702 699 697 696 695 693 690 686 682 678 677 676 676 675 674 673 672 671 669 668 666 664 662 661 659 658 657 655 654 653 653 653 652 653 653 653 653 653 652 652 653 653 653 654 654 654 654 654 654
751 750 749 748 747 746 745 743 742 741 740 739 738 737 736 735 733 732 731 730 728 727 725 723 722 721 720 718 716 712 710 709 709 709 709 707 704 701 699 697 695 694 693 692 688 684 679 675 674 674 674 674 672 671 670 668 667 666 664 662 660 658 657 656 655 653 652 651 651 650 650 650 650 650 651 651 651 651 651 651 652 652 652 652 652 652
750 749 747 746 745 744 743 742 740 739 738 737 736 735 734 733 732 731 730 729 727 726 724 723 722 720 719 718 716 714 711 709 708 708 708 707 703 700 699 697 695 693 692 691 690 687 682 677 674 672 673 672 672 670 669 667 667 665 663 662 659 657 657 656 655 653 652 651 650 649 648 648 648 648 648 649 649 649 649 649 650 650 651 651 650 650
748 747 746 745 744 742 742 740 739 738 737 736 735 734 733 732 732 731 729 728 727 726 724 722 721 720 718 717 715 713 711 709 708 707 707 706 703 701 698 697 695 693 691 689 688 687 684 680 676 673 672 671 670 669 668 667 665 664 663 661 659 657 656 655 655 654 652 651 649 648 647 647 647 647 647 647 647 647 647 647 647 648 648 648 648 648
747 746 745 743 742 741 740 739 737 737 735 734 734 733 732 731 730 729 728 727 726 724 723 722 721 719 717 715 713 711 709 708 707 707 707 706 703 701 698 696 694 692 690 688 687 685 683 681 678 675 672 669 668 668 667 666 664 663 662 660 659 657 655 655 654 653 652 650 649 648 647 647 646 646 646 646 646 646 646 646 646 646 646 647 647 647
746 745 743 742 741 740 738 737 736 735 734 733 732 732 731 730 728 727 726 725 723 722 722 721 720 718 717 714 712 710 707 706 705 705 705 704 703 700 698 696 694 692 690 688 686 684 682 680 678 676 673 669 667 666 665 664 663 662 661 659 658 657 655 655 654 653 651 650 648 647 646 646 645 645 645 645 644 644 644 644 644 644 644 645 645 646
745 744 742 741 740 739 737 737 736 734 733 732 731 730 729 728 727 725 724 723 722 721 720 718 717 716 715 713 712 709 707 705 704 703 703 702 702 700 697 695 693 692 690 688 686 684 682 679 677 675 673 670 667 664 663 662 662 661 660 658 657 656 655 654 654 652 651 649 647 646 645 645 644 644 643 643 643 643 642 642 642 642 642 643 644 645
744 743 742 741 740 739 737 736 735 734 733 732 730 729 728 726 725 724 722 721 720 719 717 716 715 714 713 712 711 709 707 704 702 702 701 700 700 699 697 694 692 691 690 688 686 684 682 679 677 674 672 671 668 665 662 661 661 660 659 657 657 656 654 654 653 652 651 649 647 646 645 644 643 642 642 642 641 641 641 640 640 641 641 641 642 643
744 742 742 741 740 739 737 736 735 734 732 731 730 728 727 725 724 722 721 720 719 717 716 715 713 712 711 710 709 707 705 703 701 699 698 698 697 697 695 693 691 689 689 687 686 684 682 679 677 674 671 669 667 665 663 661 660 659 657 657 656 655 654 653 652 651 650 648 646 645 644 643 642 641 640 640 639 639 639 638 638 638 639 640 640 641
744 742 741 740 740 738 737 736 735 733 732 731 729 727 726 724 722 722 720 719 718 716 715 713 712 710 709 707 706 704 702 701 699 697 696 695 695 694 693 691 689 687 687 686 684 683 681 679 677 674 671 668 666 664 662 661 660 658 657 656 655 654 653 652 651 650 649 647 646 644 643 642 642 641 640 639 639 639 638 637 637 637 638 638 638 639
743 742 741 740 739 738 737 736 734 733 732 730 728 727 725 723 722 721 719 718 717 715 713 712 710 708 707 705 703 702 700 698 697 695 694 693 692 692 691 689 687 686 684 683 682 681 680 678 676 673 671 669 666 664 662 660 659 657 657 656 654 652 652 651 650 649 647 646 644 643 642 642 642 641 641 640 639 639 638 637 637 637 637 637 637 637
743 742 740 739 738 737 736 735 733 732 731 729 727 726 724 723 722 720 718 716 714 713 711 709 708 706 704 702 700 699 697 696 695 693 692 692 691 690 688 687 686 684 682 681 680 679 678 676 674 672 670 668 666 664 661 659 658 657 656 655 653 652 651 650 649 648 646 645 644 643 642 642 642 641 640 639 639 638 638 637 637 636 636 636 635 635
742 741 739 738 737 736 735 733 732 731 730 728 727 726 724 723 721 720 717 715 713 712 710 708 707 704 702 699 697 696 695 694 693 692 691 689 688 687 686 685 683 682 681 679 678 677 675 674 672 670 668 667 665 663 660 658 656 656 655 654 652 651 650 649 648 647 646 645 643 642 642 642 641 640 639 638 637 637 637 636 636 635 634 634 634 633
741 740 738 737 736 735 733 732 731 730 729 727 726 725 724 722 721 719 717 716 713 712 710 708 707 705 702 699 696 694 692 691 691 690 688 687 686 685 684 682 681 680 679 678 676 674 673 672 670 668 667 665 664 662 659 657 655 654 653 652 652 651 649 647 647 646 646 644 643 642 642 641 640 640 638 637 637 636 636 635 634 634 633 632 632 632
740 739 737 736 735 733 732 731 730 729 727 727 725 724 722 721 720 719 717 715 713 711 710 708 706 704 702 699 696 693 691 689 688 687 686 685 684 683 682 680 679 678 677 676 675 673 671 669 668 666 665 663 662 660 658 656 654 652 651 650 650 649 648 646 645 645 644 644 643 642 641 641 640 639 637 636 636 635 635 634 633 632 632 631 631 631
739 737 736 735 733 732 731 730 729 727 727 725 724 722 721 720 719 717 716 714 712 711 709 707 706 704 701 698 696 694 691 688 686 685 683 682 682 681 680 679 677 676 675 674 673 672 670 668 666 664 662 661 660 658 656 654 652 651 650 649 648 647 646 645 644 643 643 642 642 642 641 640 639 638 636 635 634 634 633 633 632 631 630 630 629 629
738 736 735 734 732 731 730 729 728 727 725 724 722 721 720 719 717 716 715 713 712 710 708 707 706 704 701 699 696 694 691 688 686 684 682 680 679 679 678 677 676 675 673 672 671 669 668 666 664 662 661 659 657 656 654 653 651 650 648 647 647 646 645 643 642 642 642 641 641 640 639 639 638 637 635 634 633 632 632 632 631 631 630 629 628 628
737 735 734 733 732 730 729 728 727 725 724 722 721 720 719 717 716 715 713 712 711 709 708 707 705 703 702 699 697 694 692 689 686 683 681 679 678 677 676 675 674 673 672 670 669 667 666 664 663 661 659 658 656 654 652 651 650 649 648 647 646 645 644 643 642 641 640 639 639 638 637 637 636 635 634 633 632 631 631 630 630 630 630 629 628 627
736 734 733 732 731 729 728 727 726 724 723 722 720 719 718 717 715 714 712 711 710 709 707 706 704 702 701 698 696 694 692 689 686 683 681 679 677 675 674 673 672 671 670 668 667 665 664 662 661 659 658 657 655 653 651 650 649 648 647 647 646 645 644 642 641 640 639 638 637 637 636 636 636 635 634 633 632 631 630 629 629 629 629 629 628 627
735 733 732 731 730 728 727 726 724 723 722 720 719 718 717 716 715 713 712 711 709 708 707 705 703 702 700 697 695 693 691 689 686 684 682 679 677 676 674 672 671 669 667 666 664 663 662 660 659 658 657 655 654 652 651 649 647 647 647 646 646 645 644 642 641 639 638 637 636 636 635 635 635 635 635 634 632 631 630 629 629 629 629 629 628 627
733 732 731 730 728 727 726 724 723 722 721 720 718 717 716 714 713 712 711 710 708 707 706 704 703 701 699 696 694 692 690 688 686 683 681 680 678 676 674 673 671 669 667 665 663 661 660 658 657 656 655 654 653 652 651 648 647 646 646 646 645 645 644 642 640 639 638 637 636 636 635 635 635 635 635 634 633 632 631 630 629 629 629 629 628 628
732 731 730 728 727 726 725 724 722 722 720 719 718 716 715 713 712 711 710 709 707 706 705 703 702 700 698 695 693 691 689 687 685 683 681 679 678 677 675 673 672 670 668 666 663 661 659 657 655 654 653 653 653 652 651 649 647 646 645 645 644 644 643 642 640 639 638 637 637 636 635 635 635 635 635 634 634 633 632 631 630 629 629 628 628 628
Wind_Speed
17 19 20 21 22 22 21 21 23 25 26 26 27 27 27 28 30 31 31 30 30 31 32 33 33 34 35 36 37 37 37 37 37 36 36 36 36 36 36 36 36 36 37 37 37 37 36 35 35 36 37 37 38 38 37 36 34 32 32 31 32 32 32 32 31 30 30 31 31 31 29 28 27 28 29 30 31 32 33 33 32 33 35 35 34 32
18 19 19 20 20 21 21 21 22 23 25 26 27 27 27 29 30 30 29 29 30 30 31 32 33 34 34 35 36 35 35 35 35 36 36 37 37 37 36 36 36 36 36 36 36 36 35 35 35 35 36 37 38 39 38 37 35 33 32 32 32 33 33 33 33 32 31 32 33 33 32 30 29 28 28 29 31 32 32 32 33 34 36 36 35 33
19 19 19 19 20 20 21 22 22 23 24 25 26 26 27 28 28 27 28 29 30 31 31 32 33 34 34 35 35 34 33 33 33 34 35 35 36 36 36 36 35 35 35 35 35 35 35 34 34 34 35 36 37 38 38 37 36 34 33 33 33 34 34 34 35 34 34 34 35 36 36 34 32 30 29 29 30 31 32 32 33 34 36 37 36 34
19 19 20 20 20 20 20 21 22 23 24 24 25 25 26 27 27 26 27 28 29 30 30 30 31 31 32 33 33 33 33 32 32 33 33 34 34 34 34 34 34 34 34 34 34 34 34 34 33 33 34 35 36 37 38 37 36 35 34 34 34 34 35 35 35 35 35 35 35 36 37 37 35 33 31 30 30 31 31 32 33 35 36 37 36 35
18 18 20 20 20 20 20 21 22 23 23 23 24 24 24 25 26 27 27 28 28 29 29 28 28 29 30 31 32 33 33 32 33 33 33 33 33 33 33 33 33 33 33 33 34 34 34 33 33 33 34 34 36 37 38 37 36 35 34 34 35 35 35 35 35 35 36 36 36 36 37 37 36 34 32 31 31 31 31 32 33 35 36 37 37 35
18 18 19 19 19 20 20 21 21 21 22 22 22 23 23 24 25 26 26 27 27 27 27 27 27 27 28 30 31 32 32 32 33 33 34 33 33 33 32 32 32 33 33 33 33 33 33 33 33 33 34 34 35 36 37 37 36 34 33 34 35 36 35 35 35 35 36 36 36 37 37 37 36 34 32 31 31 31 32 32 33 34 36 38 38 36
19 18 19 19 19 19 19 19 20 20 21 22 22 22 23 23 24 24 25 25 25 26 26 26 26 26 27 28 30 31 32 33 33 33 33 33 33 33 33 33 33 33 33 33 33 32 32 31 31 31 32 33 34 35 37 38 36 35 33 34 36 36 35 35 34 35 35 36 36 36 37 37 36 35 33 31 31 31 32 33 33 33 35 37 38 38
19 19 18 18 19 19 19 18 18 19 21 22 23 23 24 24 24 23 23 24 24 24 24 25 25 25 26 26 28 30 31 31 31 31 32 32 32 32 33 33 33 33 33 33 32 31 31 30 29 29 28 29 30 32 35 37 36 35 35 37 37 37 36 35 34 35 35 36 36 37 37 37 37 35 34 32 31 31 32 33 33 33 34 36 38 38
17 18 18 17 18 19 19 19 18 18 21 22 22 23 23 24 24 24 23 23 22 22 23 24 25 25 25 25 27 28 28 29 29 29 30 30 31 32 33 33 33 33 32 32 31 31 30 30 29 28 27 27 27 28 30 32 34 35 36 38 38 38 36 35 35 35 36 36 37 37 37 37 37 36 35 33 32 31 32 33 34 34 34 35 36 38
16 17 17 17 16 17 18 19 19 19 20 22 22 21 21 22 23 24 24 23 22 22 22 23 24 25 25 25 26 26 27 27 28 28 29 30 31 32 32 32 32 32 32 32 31 31 31 30 30 30 29 28 28 27 28 28 29 31 33 36 38 38 37 36 36 36 36 37 37 38 38 37 37 37 36 34 33 32 31 33 34 35 35 35 35 37
15 16 16 16 17 16 17 18 19 20 21 21 21 20 18 18 20 22 23 24 24 23 23 23 24 24 25 26 26 26 26 26 27 27 28 30 31 31 31 31 31 31 31 31 32 32 32 33 32 32 31 31 30 30 29 28 28 29 30 32 35 37 38 38 37 37 37 37 38 38 38 38 37 37 36 35 34 33 32 32 33 35 36 36 36 37
14 15 15 16 16 17 18 19 20 20 20 20 20 19 19 18 18 20 22 23 24 24 24 25 25 24 24 25 26 26 25 25 26 27 27 29 30 30 30 30 30 31 32 32 33 34 35 34 34 33 32 31 31 31 31 31 31 30 30 31 32 34 36 38 38 38 38 38 38 38 38 38 38 37 37 36 36 35 34 33 33 34 36 36 36 37
14 15 15 16 16 17 18 19 19 19 19 18 18 18 20 20 20 21 22 23 23 23 24 26 26 25 24 24 25 25 25 25 26 26 26 27 28 28 29 30 31 32 32 33 35 36 36 35 34 33 32 32 31 31 31 32 33 33 32 32 32 32 33 35 36 38 38 39 39 39 39 38 38 37 37 37 37 36 35 34 33 33 35 36 37 37
15 15 16 16 17 17 18 18 19 18 18 18 18 20 21 22 22 21 22 23 23 24 24 24 26 26 24 23 23 24 25 25 26 25 25 26 27 28 29 31 32 32 32 33 35 36 36 35 34 34 33 32 31 31 31 32 33 33 33 33 33 33 33 32 33 35 37 38 39 39 39 38 38 38 37 37 37 37 37 35 34 33 34 35 37 38
14 15 15 15 16 17 17 18 19 19 19 20 20 21 23 23 22 21 21 23 24 25 24 25 26 26 24 22 21 22 24 26 25 24 26 27 28 29 30 32 32 32 31 32 32 33 34 33 33 33 33 32 32 32 32 32 32 32 32 33 33 34 34 33 32 32 34 36 38 38 38 38 38 38 38 37 37 37 37 36 35 33 33 35 37 38
15 15 15 15 16 17 18 19 20 21 21 22 21 21 22 22 22 22 21 23 24 24 23 22 23 23 24 23 22 22 24 26 25 25 26 28 29 29 30 31 32 32 31 30 31 32 33 33 33 32 31 31 31 31 32 32 32 32 32 32 32 33 34 34 34 32 32 33 35 37 37 37 37 37 37 37 37 37 37 36 35 33 32 34 36 38
15 15 16 16 17 18 20 20 21 21 22 22 22 21 21 22 22 23 23 23 23 22 20 18 14 12 16 23 24 23 24 25 26 26 26 28 29 30 30 30 31 31 31 30 31 32 32 32 32 31 31 30 31 31 31 31 31 31 31 31 31 32 33 34 35 34 32 32 32 34 35 35 35 36 36 37 37 36 36 35 34 32 31 32 33 35
16 16 17 18 18 19 21 21 21 21 21 21 22 22 23 23 23 23 23 23 22 21 20 19 15 11 10 17 23 26 25 27 27 26 26 27 29 30 30 30 30 30 30 30 31 31 32 32 32 31 31 31 30 30 30 30 31 31 31 31 31 31 31 32 33 34 34 32 31 31 33 34 34 35 35 36 36 35 34 33 32 31 30 30 30 32
17 17 17 18 19 20 20 20 20 21 21 21 22 23 23 24 24 23 23 23 22 21 20 19 18 18 18 21 25 29 29 29 28 26 25 26 28 30 29 29 29 29 29 30 31 31 32 32 33 33 32 32 31 30 30 29 29 30 31 31 31 31 31 30 31 32 33 33 32 31 31 32 33 34 35 35 34 33 32 31 29 28 28 28 29 29
19 19 18 19 20 20 20 20 20 21 21 23 23 23 23 24 24 23 23 23 23 22 20 19 19 20 22 25 28 31 31 30 28 25 24 26 28 29 29 28 28 28 29 30 31 31 31 32 33 33 33 33 32 31 30 29 29 29 30 30 31 31 31 30 30 31 33 34 33 32 31 31 31 33 34 33 32 31 30 28 27 27 27 27 27 28
20 20 20 20 20 20 21 22 22 23 23 24 24 24 23 23 23 23 23 24 23 22 21 20 21 23 26 27 30 32 32 29 26 24 23 24 26 27 27 27 28 28 28 30 32 32 31 32 32 32 32 33 33 32 31 31 30 30 30 30 31 31 31 30 30 30 31 32 33 33 32 32 31 31 32 31 30 29 28 27 26 26 26 26 27 27
21 21 22 21 20 21 23 24 24 24 25 25 24 23 22 22 22 22 24 23 22 23 23 23 25 27 28 29 31 32 31 28 25 24 22 20 22 25 25 26 26 26 27 29 31 31 31 31 32 32 33 33 34 34 33 32 32 31 31 31 31 31 31 31 30 29 30 31 32 33 34 33 33 32 32 31 29 28 26 25 25 25 25 26 26 26
22 22 23 23 23 23 24 24 25 26 26 25 25 24 24 23 24 24 23 23 23 24 25 26 28 29 29 29 29 28 27 26 25 23 20 14 15 22 25 27 26 25 27 29 30 31 31 30 30 31 32 33 34 34 34 33 32 31 31 30 30 30 30 30 29 29 29 30 31 32 34 34 34 33 33 31 29 27 25 24 24 24 24 25 25 25
22 23 23 24 24 25 26 26 26 26 26 26 26 27 27 28 28 28 27 26 26 26 27 27 27 26 25 24 23 24 25 26 25 22 17 14 16 21 26 27 25 25 28 29 30 29 29 29 30 31 32 33 34 34 34 33 32 31 30 30 29 29 28 28 28 28 28 28 29 30 32 33 34 33 33 31 29 26 24 23 23 23 24 24 24 24
21 22 22 23 25 26 28 28 28 28 27 28 29 29 30 30 29 27 26 25 25 25 25 24 21 18 18 19 20 23 25 23 22 20 17 16 19 23 27 28 26 25 27 29 29 28 28 28 29 30 31 32 33 33 31 30 29 28 28 28 28 28 28 28 28 28 28 28 28 28 30 31 33 33 32 29 27 25 24 23 23 23 23 23 23 22
21 22 22 24 26 27 28 28 28 28 28 28 28 29 29 28 26 24 22 21 21 21 20 18 15 14 16 18 19 21 23 22 21 20 19 17 19 22 25 27 26 24 25 27 28 28 27 27 28 29 30 31 31 29 27 25 25 25 26 26 27 27 27 27 28 28 28 27 27 27 28 30 32 32 30 26 23 23 22 22 22 22 22 22 22 21
21 23 24 25 26 26 27 27 27 28 28 27 27 27 27 25 23 21 18 18 18 18 16 13 11 11 15 17 18 21 23 23 22 21 20 18 18 19 23 25 24 23 24 25 26 26 26 26 27 28 29 29 27 25 23 22 23 24 25 26 27 27 26 26 27 28 28 28 28 28 28 29 31 30 26 21 19 19 20 21 21 22 22 22 21 21
21 22 23 24 25 25 26 26 26 26 26 26 25 25 24 23 20 18 17 19 19 18 16 13 10 9 11 14 18 22 24 23 21 20 20 18 17 18 22 24 24 24 23 24 25 26 26 25 25 27 27 26 23 21 21 23 26 27 28 28 28 28 27 25 24 25 26 27 28 28 29 29 29 28 25 21 18 17 18 19 20 21 21 21 21 21
21 22 23 24 24 24 24 25 25 25 25 24 24 23 22 21 20 19 19 20 20 18 16 15 14 12 13 16 20 23 23 21 19 19 20 18 18 20 24 24 23 22 21 21 22 23 24 23 23 23 23 21 20 20 22 26 29 30 29 29 29 29 29 27 24 22 23 25 27 28 29 29 29 28 26 23 21 19 19 19 20 20 21 21 21 21
23 23 24 23 23 23 24 25 25 25 24 23 23 22 21 21 21 22 22 22 20 18 16 15 15 15 15 15 15 15 17 19 20 20 21 18 17 19 23 22 21 20 19 16 13 13 17 21 21 20 19 19 20 22 25 28 30 30 29 28 28 28 28 28 27 24 21 21 23 26 28 28 28 28 27 25 23 21 20 19 19 20 21 21 21 21
24 24 23 23 23 23 24 25 25 25 24 24 23 23 22 22 22 23 23 22 20 18 16 14 14 14 14 11 7 5 8 18 22 22 22 19 17 18 19 19 19 20 19 16 8 3 8 14 18 19 17 17 20 23 26 28 29 28 28 28 27 27 27 28 27 26 23 21 20 21 24 26 26 26 26 24 22 21 20 19 19 20 21 21 21 21
24 23 22 22 22 23 24 24 24 24 25 24 23 23 22 22 22 22 22 21 20 19 17 16 15 15 15 13 10 7 11 19 23 24 24 19 17 17 18 18 19 20 22 20 14 8 6 5 12 19 18 19 22 24 26 26 26 26 25 26 26 27 27 27 27 27 25 23 21 19 19 20 22 23 23 22 21 21 20 19 18 19 20 20 20 20
23 22 21 21 22 23 23 24 24 25 25 23 22 20 20 21 21 21 21 21 21 21 20 19 18 17 17 18 17 16 19 22 23 24 23 21 18 18 19 20 21 21 22 21 19 16 11 9 13 18 20 22 22 23 23 23 23 23 23 23 25 26 27 27 27 27 26 24 23 20 17 15 16 17 19 20 20 20 19 18 17 18 19 20 20 20
21 21 21 21 22 22 22 24 25 25 23 21 20 19 20 22 23 23 23 23 23 23 23 21 19 18 18 18 19 20 21 22 23 24 23 22 20 20 21 21 21 21 20 19 19 18 16 17 18 20 21 23 23 22 21 21 21 22 22 23 24 26 27 27 27 27 27 27 25 23 19 16 14 14 15 17 18 18 17 16 16 16 18 19 20 20
20 20 20 21 21 22 23 23 23 22 20 19 20 21 23 25 27 27 26 25 24 24 23 22 22 21 20 18 18 18 21 23 25 27 26 24 23 21 21 20 20 18 17 17 17 16 15 18 20 20 19 21 23 22 21 20 20 21 23 24 25 25 26 26 27 28 28 28 27 25 22 20 17 15 14 15 15 16 15 15 14 14 17 19 20 20
19 19 19 19 20 20 21 21 20 19 19 20 22 25 27 28 28 28 27 25 24 23 23 23 24 24 24 23 21 20 22 26 29 31 29 27 24 22 20 19 19 18 17 17 17 16 15 17 19 20 19 18 18 20 22 21 21 22 24 25 25 25 26 25 26 26 27 28 27 26 25 23 21 18 17 15 14 14 14 13 13 13 15 18 20 22
17 17 17 18 18 18 19 18 18 19 20 22 24 27 28 29 29 28 26 25 24 23 23 23 24 24 24 24 24 25 26 29 32 32 31 29 26 24 21 20 20 19 18 17 17 17 17 16 16 18 18 16 15 17 20 21 22 23 23 24 25 25 25 24 24 24 25 26 27 26 25 24 23 21 20 17 15 13 13 13 13 13 14 16 19 22
16 16 16 17 18 18 18 18 19 20 21 22 24 26 28 28 28 27 26 25 24 24 24 24 24 24 24 25 26 28 30 31 32 32 31 30 28 25 22 21 21 20 19 18 18 18 17 13 11 10 10 14 17 19 21 20 20 21 22 24 24 24 22 22 22 23 25 26 26 25 24 23 22 22 21 18 16 15 14 13 13 14 14 15 17 20
16 17 17 18 18 18 18 18 19 20 21 22 24 25 26 27 27 25 24 24 24 24 24 24 24 24 25 26 28 29 30 31 31 31 30 29 27 25 24 23 22 22 21 20 19 19 17 14 11 9 7 12 17 21 22 21 20 20 22 23 23 21 19 19 21 23 25 26 26 24 22 20 20 20 19 18 17 16 16 16 16 16 17 18 18 19
17 18 18 18 18 17 18 18 19 20 21 23 24 24 25 25 24 23 23 23 24 25 26 26 25 25 26 27 28 30 30 31 30 30 29 28 27 26 25 24 23 23 23 22 20 19 18 17 17 16 16 15 17 19 20 21 20 20 19 19 18 18 18 20 23 25 26 25 24 23 20 19 18 18 18 17 17 17 17 17 18 18 18 18 19 20
18 19 19 19 18 18 18 19 20 21 22 22 23 23 22 22 22 22 22 23 24 26 27 27 26 26 27 28 29 29 29 29 29 28 28 27 27 26 25 25 24 24 24 23 21 20 19 18 18 18 18 18 19 19 20 21 21 20 18 17 17 19 21 23 23 24 24 23 22 21 20 18 18 18 18 18 18 19 19 19 19 19 19 18 19 20
18 19 19 19 20 20 20 21 21 21 21 21 20 20 19 20 20 21 22 23 24 25 25 25 25 25 25 27 28 29 28 28 28 28 27 27 27 26 25 25 24 24 23 22 21 20 20 19 18 18 18 18 18 17 18 20 21 20 19 18 19 20 20 20 20 21 21 22 21 21 20 20 19 19 20 21 21 21 21 21 21 20 19 18 18 20
19 20 20 21 21 21 22 21 21 21 21 20 19 19 20 20 21 22 22 22 23 23 24 23 23 22 22 23 24 26 27 28 28 27 27 27 26 26 25 24 24 23 23 21 20 20 20 19 18 18 19 18 18 17 18 19 20 20 20 19 18 16 13 14 18 20 21 22 22 22 22 21 21 21 21 21 21 21 21 21 21 20 19 18 17 19
20 21 21 21 21 22 22 21 20 20 20 20 20 20 21 23 24 24 23 22 22 22 22 22 22 21 20 21 22 23 25 27 28 28 28 27 27 26 24 24 23 23 22 21 20 19 19 19 19 19 19 19 18 17 17 18 19 20 20 20 19 16 13 16 19 23 23 23 23 22 21 21 21 22 22 22 21 20 20 20 20 20 19 18 17 17
21 21 20 20 20 20 19 20 20 20 20 20 20 21 23 24 25 24 22 21 21 21 21 21 20 19 18 19 20 21 23 24 26 28 29 28 27 26 24 23 23 22 22 21 21 20 19 19 19 21 21 19 18 18 18 18 19 19 19 19 18 18 19 21 23 23 21 21 20 20 20 21 21 22 22 22 22 21 20 19 19 20 19 18 17 17
19 19 19 19 19 19 19 19 20 20 20 20 20 22 23 24 24 23 22 20 20 20 20 20 18 17 16 17 19 20 21 22 24 25 27 28 28 26 25 23 23 22 22 22 22 22 22 21 22 22 21 19 18 18 19 18 18 18 18 18 17 18 19 21 22 21 19 18 18 19 20 21 21 20 19 20 21 21 20 19 19 20 20 19 18 17
19 19 19 19 19 19 20 20 20 20 19 20 20 22 23 23 23 23 21 20 19 19 19 19 18 17 16 17 18 18 19 21 22 24 25 26 27 26 26 25 24 23 22 22 22 22 22 22 23 23 21 18 16 16 18 18 17 17 16 16 16 16 16 18 19 20 19 19 19 20 21 21 19 17 18 20 21 22 21 20 20 20 20 20 19 17
18 18 19 19 19 20 20 20 19 19 19 19 20 21 21 22 22 21 19 19 19 19 19 18 18 17 18 18 18 18 19 20 21 23 24 24 25 26 26 26 26 25 24 22 21 20 20 20 21 21 21 19 16 15 16 17 17 16 15 15 15 15 15 17 20 21 21 22 22 22 22 19 17 16 17 19 19 19 20 21 21 21 20 20 19 16
18 19 19 19 19 19 20 19 19 19 19 19 20 21 21 21 21 20 19 20 20 19 18 18 18 17 18 18 19 19 20 20 21 22 22 23 24 25 26 26 26 26 25 23 21 20 19 19 18 17 16 16 16 16 17 18 17 16 15 15 15 15 16 18 20 22 22 22 23 22 21 19 18 17 17 17 16 17 19 21 22 22 21 21 19 17
19 19 19 19 19 19 19 19 19 18 18 19 19 20 21 21 21 21 21 20 20 19 18 18 18 17 18 18 19 20 20 20 20 21 21 22 22 23 24 24 24 24 23 22 21 20 19 18 17 16 13 12 12 13 15 17 17 16 14 14 15 15 16 18 20 21 21 21 21 21 20 19 18 17 17 15 15 15 17 19 20 21 21 21 20 18
19 19 19 19 18 18 18 18 18 18 18 19 19 19 20 20 21 21 21 20 20 20 19 19 18 18 18 19 20 20 20 19 19 19 21 21 22 21 21 20 20 20 19 18 17 16 15 14 13 14 15 13 12 12 14 15 16 15 13 13 13 14 14 16 17 18 18 19 19 19 19 18 17 16 15 14 13 13 14 16 18 20 20 20 19 17
Wind_Direction
317 318 320 322 323 322 322 324 326 325 325 325 325 324 324 324 324 324 325 325 325 324 323 321 320 319 317 317 316 315 315 314 313 312 312 311 310 309 308 307 306 305 304 303 303 301 299 297 294 291 289 287 285 283 280 278 278 280 283 285 287 288 289 289 287 284 281 280 280 281 282 280 274 266 260 256 255 257 259 253 242 229 219 212 208 207
319 319 320 322 323 322 321 323 325 325 324 323 323 323 324 323 324 324 324 323 322 321 320 319 318 317 316 316 316 316 315 315 314 314 313 313 312 312 311 310 309 308 307 306 305 303 300 297 295 293 291 288 285 282 278 275 274 276 279 282 285 287 288 288 287 285 283 280 278 278 279 279 277 273 267 261 256 254 253 248 241 231 223 215 211 210
320 320 320 322 323 321 320 321 322 322 321 321 321 321 322 322 322 322 322 321 320 319 318 317 317 316 316 316 316 316 315 315 314 314 314 313 313 313 313 312 311 311 310 309 308 306 303 299 296 294 292 289 285 281 277 273 271 272 276 280 284 286 287 287 287 286 284 282 280 278 277 277 276 275 272 267 261 255 251 247 241 234 226 219 215 213
319 319 320 321 321 319 318 319 320 320 319 319 319 320 320 320 320 319 319 318 318 317 317 317 317 316 316 316 316 316 315 314 313 312 312 312 312 312 313 313 313 312 312 311 310 308 306 302 299 296 294 291 288 285 280 275 270 269 273 278 283 285 286 286 286 285 285 283 281 279 278 277 276 275 272 270 266 261 255 249 244 237 230 223 218 215
317 318 319 320 319 317 317 318 318 318 318 317 317 318 318 317 317 316 316 316 316 316 316 316 316 315 315 315 315 315 315 314 313 312 312 311 311 312 312 313 313 313 314 313 312 310 308 305 302 298 295 292 290 288 285 279 272 268 270 277 282 285 285 285 285 285 285 283 282 280 278 277 277 275 273 270 268 265 259 253 247 240 233 226 221 217
315 316 317 317 316 315 316 317 317 318 318 317 317 317 316 315 314 314 314 314 314 313 314 314 314 313 313 313 313 313 313 312 312 312 311 311 310 310 310 311 312 313 314 313 313 313 310 307 303 299 296 294 291 290 287 282 275 270 270 276 281 284 284 284 284 285 285 284 283 280 278 276 275 274 273 271 268 265 262 257 250 243 236 230 224 220
312 314 315 315 314 313 314 316 317 319 318 317 317 317 316 314 313 312 311 311 311 312 312 312 311 312 312 312 312 312 311 311 311 311 310 310 309 309 309 309 310 311 312 311 312 313 312 309 305 301 298 294 292 289 287 283 278 273 272 277 280 282 282 282 282 284 285 285 284 282 279 276 274 273 272 271 269 266 262 258 254 247 239 233 227 223
312 314 316 316 316 316 316 316 319 320 320 318 318 318 317 315 313 312 311 311 312 312 313 312 311 311 311 311 311 311 311 311 311 311 310 310 309 309 309 309 309 310 310 311 311 312 313 310 308 306 305 300 295 290 287 283 278 275 274 276 279 280 280 280 281 282 284 285 285 284 280 276 273 271 271 271 270 267 263 260 256 251 243 236 230 225
313 315 317 318 319 319 319 318 320 322 322 319 317 317 317 316 315 315 314 315 315 315 315 313 312 311 311 311 311 311 311 310 310 310 310 310 310 309 309 309 309 308 309 310 310 311 313 312 311 311 312 311 307 301 294 289 284 279 276 275 276 277 277 278 279 281 283 285 285 285 282 278 274 271 270 270 270 269 265 261 258 254 248 240 233 228
314 315 316 318 319 320 319 318 320 322 322 319 317 315 315 316 317 318 318 317 318 318 316 314 312 312 312 312 312 311 311 309 308 308 309 309 309 310 310 309 309 308 308 308 309 310 311 312 312 313 313 314 314 312 307 302 297 291 284 278 275 274 274 276 277 279 281 283 285 285 282 278 274 270 269 268 269 269 268 264 260 256 252 245 238 232
313 313 314 315 317 317 316 315 317 319 321 320 318 317 318 319 321 320 318 317 318 319 317 315 313 313 314 313 313 312 311 309 309 308 309 309 310 310 310 310 309 308 308 309 310 310 311 311 311 312 312 312 313 313 312 310 308 305 300 291 282 276 273 273 275 277 280 282 284 284 282 278 274 270 268 267 267 268 269 266 263 258 254 250 244 237
309 310 311 312 314 315 315 315 316 318 321 321 321 321 322 323 323 319 315 315 316 318 317 315 313 313 313 312 312 312 311 310 309 309 310 310 311 311 311 311 309 308 309 310 310 310 310 310 311 311 311 311 311 311 311 311 310 310 310 306 299 289 280 275 273 275 277 280 282 283 281 277 273 269 267 266 266 267 268 268 265 261 257 254 249 243
305 308 309 310 311 313 314 316 317 319 321 322 321 319 319 320 319 316 312 311 313 315 316 314 312 312 312 310 310 310 310 309 309 309 309 309 309 310 310 309 308 308 309 309 308 307 307 308 309 309 309 309 309 310 310 310 309 309 310 311 310 305 296 286 279 276 276 278 280 281 280 277 273 269 266 265 265 265 267 268 267 264 259 256 253 249
306 308 308 309 310 311 313 314 315 315 316 317 315 313 312 314 314 313 310 309 311 313 314 312 310 311 312 311 310 309 310 309 309 309 308 307 307 308 307 306 305 305 306 305 304 303 304 305 305 305 306 307 307 307 308 308 309 309 310 310 310 311 308 302 293 284 280 279 279 280 279 277 273 269 267 265 264 265 266 268 268 265 261 257 255 253
306 309 309 309 309 310 311 312 312 311 311 311 310 309 309 310 310 310 309 309 310 312 313 311 310 311 311 311 311 310 310 309 308 308 308 307 306 307 306 305 303 303 303 302 301 300 301 301 301 301 302 303 304 304 305 306 307 307 308 308 308 309 309 308 304 296 288 282 280 279 278 276 273 270 268 267 266 265 265 267 267 266 262 258 255 253
307 308 308 307 308 308 309 309 309 308 308 308 308 307 307 308 308 309 308 307 308 310 311 311 311 311 311 311 311 311 310 308 307 306 307 306 305 305 305 303 301 301 301 299 298 298 299 299 298 298 298 299 300 301 302 303 303 303 304 304 305 306 307 307 306 303 297 289 282 279 277 275 272 270 269 269 268 266 266 266 266 266 263 259 255 253
307 307 307 306 306 306 307 307 306 305 306 306 306 306 305 305 305 306 305 304 305 306 305 306 307 310 310 311 311 311 310 308 306 304 304 303 303 303 303 300 298 297 298 297 295 295 296 297 297 296 296 296 297 297 298 299 299 299 299 300 301 303 304 305 305 305 303 297 289 282 278 276 273 270 269 268 267 266 265 265 265 264 263 261 258 255
306 305 305 305 304 305 307 307 306 305 305 305 306 305 304 303 303 303 302 301 300 299 299 298 299 300 303 306 307 308 309 307 304 302 302 301 301 302 301 298 296 294 295 294 293 293 294 294 295 295 295 295 295 294 294 294 295 295 295 296 297 299 300 302 303 303 303 302 298 291 283 277 272 269 268 266 266 265 265 265 264 264 263 262 260 257
303 302 303 303 303 304 305 305 305 305 306 305 305 304 303 302 302 301 300 299 296 293 292 291 292 294 297 299 301 304 306 304 303 301 301 300 299 300 299 297 295 294 293 293 292 292 293 294 295 296 297 297 296 294 293 291 291 291 292 293 294 295 296 298 300 301 302 302 301 298 291 281 273 268 266 265 266 266 267 266 266 265 264 262 261 259
299 299 299 300 301 302 301 302 302 303 303 302 301 299 297 298 299 299 299 297 294 290 287 286 287 291 295 297 299 301 303 302 301 300 299 298 297 297 297 295 293 293 293 292 292 293 294 295 297 298 299 299 298 296 294 291 289 289 289 290 291 292 293 294 296 298 299 299 299 299 298 290 279 269 265 265 267 269 270 269 268 266 265 264 262 261
295 294 295 295 296 297 298 299 300 300 299 298 295 292 291 293 294 295 296 296 294 292 289 287 287 291 295 295 296 297 299 299 299 298 297 295 294 295 295 293 292 292 292 292 294 294 295 297 298 300 300 300 300 298 296 293 290 288 287 287 288 289 290 291 292 293 295 296 297 298 299 296 288 277 267 265 267 270 271 270 268 266 265 264 263 261
289 290 291 291 289 289 293 294 296 297 296 294 290 286 286 288 290 291 293 293 293 292 291 289 289 290 291 290 290 292 294 294 293 293 293 290 289 291 294 294 293 292 292 292 294 295 296 298 299 300 300 301 301 300 298 295 292 290 288 286 285 286 287 288 288 289 290 292 294 296 297 298 293 284 273 267 267 269 269 269 267 265 264 263 262 260
286 287 290 291 290 289 290 291 294 296 296 293 289 286 285 285 287 288 289 288 288 288 288 287 287 287 286 285 286 288 292 293 292 290 289 286 288 292 295 296 294 292 291 292 294 295 297 298 298 299 300 301 302 302 300 298 295 293 290 287 285 284 284 284 284 285 286 288 291 293 295 297 294 288 278 271 267 267 268 267 266 265 263 262 261 259
292 291 293 294 295 296 296 296 297 299 300 298 296 294 293 290 289 288 287 288 289 290 289 287 286 284 283 283 286 290 294 297 297 294 289 288 290 293 296 295 292 290 290 291 293 294 296 297 298 299 301 303 304 304 303 301 299 297 295 292 289 285 283 282 281 281 282 284 286 289 293 295 293 289 281 272 267 265 265 266 265 265 263 262 260 258
296 297 297 298 298 299 300 300 301 301 302 303 302 301 299 296 293 292 293 295 296 295 291 287 282 281 285 290 293 296 298 300 300 298 292 291 291 292 293 293 290 288 289 291 293 294 295 296 297 299 301 304 306 307 307 306 306 305 303 300 296 289 284 280 278 278 279 280 282 284 288 291 290 287 280 271 264 261 262 264 265 265 264 262 260 258
298 298 298 298 299 299 300 300 301 301 302 303 303 303 302 300 299 299 301 302 300 297 291 287 285 288 294 298 299 299 301 303 303 300 294 292 290 290 291 292 290 288 290 292 294 294 295 295 296 298 300 303 307 309 311 313 314 316 316 313 308 299 289 281 277 275 276 276 277 279 282 285 286 283 278 269 261 258 259 261 264 265 265 263 262 261
301 301 301 301 302 302 302 302 302 302 303 303 304 305 305 305 305 306 305 304 302 300 296 296 296 298 300 301 300 300 302 303 303 300 296 291 289 290 291 292 292 292 293 294 294 294 293 293 294 296 298 302 306 311 316 320 323 325 325 325 322 315 305 291 281 275 273 272 272 273 276 279 280 278 276 270 263 259 260 262 264 264 264 264 264 263
305 305 305 304 304 303 303 303 303 303 304 305 306 307 308 309 308 306 303 303 304 303 299 299 299 300 300 299 299 300 301 301 301 301 301 298 294 293 294 295 296 296 297 297 295 294 292 290 291 293 297 301 305 311 318 323 325 326 327 329 329 328 322 311 295 282 274 270 269 269 270 272 272 272 273 273 271 267 264 264 264 264 263 263 262 262
308 307 306 305 305 304 304 304 304 304 305 307 308 310 310 308 305 301 299 300 300 298 295 293 293 293 294 295 297 299 299 299 301 306 309 305 299 294 296 296 298 299 301 301 299 297 295 293 292 293 296 299 303 309 315 320 324 326 327 329 330 331 331 326 317 302 284 273 268 266 265 265 265 266 269 273 274 272 267 264 262 262 261 260 259 258
312 311 309 307 306 306 306 306 306 307 308 310 312 313 313 309 304 300 298 297 294 290 288 287 288 290 292 295 297 298 299 301 305 310 312 308 299 295 297 299 301 303 305 305 304 302 301 301 299 298 298 300 304 309 314 319 323 325 327 328 329 330 332 331 330 323 308 289 275 266 262 260 258 260 264 269 272 272 269 263 259 258 258 257 255 253
314 312 310 309 308 308 308 308 309 309 311 313 316 318 318 315 310 305 301 296 290 286 286 286 289 292 295 299 301 299 300 303 306 309 311 306 299 297 301 304 306 307 307 309 308 303 307 307 307 307 306 306 309 312 314 318 321 323 324 326 327 328 330 331 331 329 325 314 297 279 266 258 254 255 260 265 269 271 270 265 258 254 254 254 252 248
313 311 309 308 308 308 309 309 310 310 312 314 317 320 320 319 315 311 306 301 297 294 294 294 296 298 299 299 297 295 296 299 302 306 309 307 304 303 306 308 309 308 308 308 305 300 303 305 310 310 310 310 311 311 313 315 317 320 321 323 324 326 328 328 329 328 328 327 320 305 285 266 256 254 257 262 267 269 270 266 258 251 250 251 249 245
312 310 308 307 307 307 307 309 310 310 311 312 315 318 319 320 318 315 312 309 306 303 302 300 300 300 300 297 294 292 293 295 299 304 308 310 308 307 308 308 308 307 308 307 304 300 299 300 306 309 309 309 309 308 309 311 313 316 318 320 321 323 325 326 325 323 323 326 327 324 312 293 273 261 259 262 265 268 269 267 259 250 244 247 247 243
312 310 307 306 306 306 307 310 311 311 310 312 315 318 318 319 319 318 317 315 312 308 304 300 297 296 296 295 294 293 294 296 299 303 307 308 307 305 305 305 305 306 307 308 307 305 302 302 303 305 306 307 306 305 305 307 311 313 315 316 318 321 323 323 321 318 318 320 324 327 326 319 305 287 274 269 269 270 271 271 265 253 242 242 243 240
312 309 306 305 304 305 308 311 313 313 314 317 319 319 319 319 319 319 319 318 316 312 307 301 296 292 289 289 291 294 296 298 300 303 305 305 304 303 302 302 303 305 306 307 307 307 304 302 301 302 303 305 305 305 305 307 310 312 313 314 316 318 319 320 318 315 314 317 320 323 326 325 319 309 296 285 278 274 273 274 271 261 246 240 238 237
310 307 306 307 308 310 313 314 316 319 321 322 320 319 318 318 319 319 320 320 319 317 313 309 304 299 293 290 289 291 295 297 301 303 303 302 301 300 299 299 300 302 303 303 304 304 302 301 300 300 300 301 303 304 305 307 309 310 311 312 313 315 316 316 315 312 311 313 315 318 321 321 319 315 310 300 289 280 275 274 275 271 258 242 237 236
309 308 309 313 316 318 318 318 320 323 324 322 319 317 317 318 318 319 319 320 321 321 319 317 313 309 304 300 297 295 296 299 302 304 304 303 300 296 294 294 295 296 297 297 299 300 300 299 298 298 297 296 297 300 303 306 308 308 308 309 311 312 313 314 313 311 308 309 310 313 316 318 319 318 316 312 305 295 285 279 277 276 268 253 242 237
311 313 315 317 318 318 317 317 318 319 320 318 317 316 316 317 318 318 318 319 320 321 320 319 317 314 311 307 304 303 302 303 305 306 307 306 302 297 291 290 292 292 292 291 291 292 294 295 294 294 294 294 293 294 297 301 304 304 304 307 308 310 310 312 312 310 308 307 308 310 314 318 322 323 323 324 324 320 310 299 289 282 276 266 254 243
313 313 313 314 314 314 314 314 314 315 315 315 315 315 316 317 316 316 316 317 317 318 318 317 315 313 310 308 307 306 306 307 308 309 309 309 306 302 295 291 290 291 291 290 287 285 285 285 286 287 290 292 293 293 294 296 297 299 302 305 307 308 308 309 310 310 309 308 309 311 315 321 326 329 331 334 336 334 328 320 310 297 284 272 261 252
310 309 309 309 309 309 309 309 310 311 313 314 314 315 317 317 317 317 317 317 317 317 318 318 316 314 311 309 308 308 308 309 310 311 311 310 309 307 302 296 292 291 292 291 288 284 280 279 280 280 282 285 288 290 292 292 292 295 299 303 305 304 304 306 308 310 310 310 310 311 314 320 326 328 330 332 334 334 331 326 320 309 293 273 256 245
308 306 306 306 306 305 304 304 306 308 311 312 314 315 317 319 320 320 320 319 318 318 319 320 319 316 314 311 309 309 310 310 311 312 312 312 312 310 306 301 296 293 292 290 288 285 280 278 276 277 277 279 282 284 286 287 289 291 293 294 295 297 299 302 305 308 310 311 311 312 313 315 318 318 318 317 318 320 323 323 321 314 302 281 257 240
306 305 304 304 304 303 302 303 304 307 310 312 313 314 316 318 320 320 318 318 317 317 319 319 318 316 313 311 310 310 311 311 312 312 313 313 313 312 310 306 302 298 293 289 286 283 280 277 275 275 275 276 278 281 284 286 287 287 287 288 290 294 296 298 302 305 306 307 309 310 310 311 311 310 308 307 308 311 315 318 319 317 309 291 268 247
304 302 302 302 301 301 301 302 304 307 310 312 312 312 313 314 314 314 314 313 314 315 316 317 316 314 311 308 308 309 310 312 313 314 315 315 316 315 313 311 308 304 297 289 284 283 282 280 277 275 274 274 274 276 280 284 286 287 286 285 287 289 291 293 297 300 301 302 304 306 308 311 311 310 307 305 305 307 310 314 317 318 313 302 282 258
301 301 301 300 301 301 302 303 305 307 309 309 309 309 309 310 311 311 310 310 310 312 314 315 315 313 309 307 306 308 309 312 315 317 319 319 318 317 315 313 312 309 303 292 285 285 286 285 282 279 276 273 270 270 274 278 281 283 284 285 283 280 279 285 290 293 295 297 299 302 306 310 313 313 311 309 307 307 309 313 317 318 316 309 295 274
300 301 301 301 302 303 303 304 305 307 307 307 306 307 308 309 310 310 307 307 309 311 314 316 316 314 310 308 308 310 311 312 314 317 319 321 321 319 317 314 313 312 308 301 294 288 285 284 284 285 283 276 269 266 268 272 275 278 280 281 281 280 279 283 286 288 289 290 293 297 303 308 313 315 315 313 310 310 310 314 318 320 320 314 304 287
301 302 302 302 303 304 304 304 305 306 306 305 305 306 308 309 309 308 306 306 308 311 314 316 315 312 309 308 309 310 311 311 312 313 315 317 319 319 318 317 316 315 313 309 305 299 292 286 284 285 284 279 273 267 266 267 269 272 275 277 279 280 283 286 289 290 290 292 294 298 303 308 313 317 316 311 309 308 310 313 317 321 322 319 310 296
301 302 303 305 306 306 305 306 306 306 305 304 305 307 308 308 308 306 305 306 309 312 314 315 313 310 306 306 307 307 308 308 309 310 311 313 315 317 319 320 321 321 319 315 312 307 302 296 291 287 282 279 277 274 271 268 266 267 270 274 277 280 284 288 292 296 299 300 299 300 304 310 315 317 313 309 306 305 308 311 316 320 321 320 314 301
301 303 304 305 306 306 305 306 305 305 304 305 306 308 308 307 306 305 305 308 311 312 313 313 311 308 306 305 304 304 304 304 306 308 310 312 314 317 320 323 324 325 324 321 317 312 308 305 300 294 286 279 277 278 279 275 270 267 266 270 276 281 285 288 291 294 296 296 296 298 302 308 313 313 310 305 302 302 305 310 314 317 319 319 315 305
301 302 302 303 303 303 304 304 304 305 305 305 307 308 308 307 307 306 305 308 310 311 310 309 307 306 305 304 304 304 304 303 304 305 308 310 313 316 319 323 326 327 326 324 322 319 316 314 311 307 300 287 279 278 282 281 277 271 267 268 272 278 282 285 286 288 289 291 293 295 299 303 306 306 305 300 299 301 304 307 310 313 314 316 314 307
299 299 299 300 300 300 301 303 304 305 305 306 306 306 307 308 307 306 306 308 309 309 307 306 304 302 302 302 304 305 304 304 304 305 307 309 311 314 317 322 326 327 326 325 324 324 324 323 321 320 317 310 298 290 288 288 285 280 272 269 269 272 275 278 282 286 289 292 295 297 300 301 302 303 301 298 297 300 303 305 306 308 310 311 312 307
297 297 297 297 297 298 299 302 304 305 305 305 305 305 305 307 307 308 309 309 309 308 307 305 302 298 297 298 300 302 303 303 303 305 306 308 310 313 316 321 325 326 325 323 323 324 325 325 324 323 322 322 320 316 311 302 296 291 282 274 270 269 271 274 280 287 293 296 298 299 299 298 298 297 296 295 297 300 301 302 303 304 305 307 308 307